Temperature
22 20 20 21 21 22 21 21 20 20 20 19 18 17 17 17 17 17 17 17 18 18 19 19 19 19 19 19 19 19 19 18 18 18 18 17 17 17 17 16 16 16 16 16
21 21 22 22 22 21 21 21 20 20 20 19 17 17 17 17 17 17 17 17 18 18 19 19 19 19 19 19 19 19 18 18 18 18 17 17 17 17 16 16 16 16 15 15
23 23 23 23 22 22 21 21 20 19 19 18 18 17 17 17 17 17 17 18 18 19 19 19 19 19 19 19 19 19 18 18 18 17 17 17 16 16 16 16 15 15 15 15
22 23 23 23 22 22 21 21 21 20 18 17 18 17 17 16 16 17 17 18 19 19 19 20 19 19 19 19 18 18 18 18 17 17 16 16 16 15 15 15 15 14 14 14
23 23 23 23 23 22 20 20 19 18 17 17 16 17 17 16 17 17 17 18 19 19 19 19 19 19 19 19 18 18 18 17 17 16 16 15 15 15 14 14 14 14 13 13
23 23 23 23 22 21 20 19 17 16 16 17 16 16 17 16 17 17 18 18 19 19 19 19 19 19 19 18 18 18 17 17 16 16 15 15 14 14 14 13 13 13 12 12
22 23 23 22 21 21 19 18 17 18 16 17 16 16 16 17 17 17 18 19 20 19 19 20 19 19 19 18 18 17 17 16 16 15 15 14 14 13 13 12 12 12 12 12
22 22 23 23 22 20 19 19 18 19 18 16 16 16 17 18 18 18 19 19 19 20 20 20 19 19 18 18 17 17 16 16 15 14 14 13 13 12 12 12 12 11 11 11
22 22 24 24 23 21 19 18 17 15 16 16 17 17 18 18 18 18 18 19 19 20 20 19 19 19 18 17 17 16 15 15 14 14 13 13 12 12 12 11 11 11 11 11
21 22 23 23 23 21 20 16 15 16 17 18 18 18 17 19 19 18 18 19 19 20 19 19 19 18 17 17 16 15 15 14 13 13 12 12 12 11 11 11 10 10 10 10
21 21 22 22 23 22 20 18 15 14 16 16 17 17 18 18 18 18 18 19 20 20 19 19 18 17 17 16 15 15 14 13 13 12 12 12 11 11 11 10 10 10 10 9
19 18 19 21 21 21 22 20 16 18 17 15 16 17 18 17 17 18 19 20 20 19 19 18 18 17 16 16 15 14 13 13 12 12 12 11 11 11 10 10 10 9 9 9
19 18 19 19 20 21 21 20 17 15 14 14 16 18 18 17 18 18 19 19 19 19 18 18 17 17 16 15 14 14 13 12 12 12 11 11 11 10 10 10 9 9 9 9
19 18 19 20 20 21 21 21 18 17 16 16 16 18 18 18 18 18 18 19 19 18 18 17 17 16 15 15 14 13 13 12 12 11 11 10 10 10 9 9 9 9 9 9
19 20 20 19 20 21 21 21 20 19 17 17 18 17 17 17 17 18 18 18 18 18 18 17 17 16 15 14 13 13 12 12 11 11 10 10 10 9 9 9 9 9 8 8
18 20 21 21 21 21 21 21 21 20 19 18 18 18 17 17 18 18 18 18 18 18 18 17 16 15 15 14 13 12 12 11 11 10 10 10 9 9 9 9 8 8 8 8
17 18 19 19 20 21 21 21 21 21 20 18 18 18 17 17 16 18 18 18 18 18 18 17 16 15 14 13 13 12 11 11 10 10 10 9 9 9 9 8 8 8 8 8
16 16 16 18 20 21 20 20 20 20 20 18 18 18 16 18 19 19 19 19 19 18 17 16 16 15 14 13 12 12 11 11 10 10 9 9 9 9 8 8 8 8 8 8
15 16 15 16 19 20 20 20 19 20 20 19 18 17 17 17 17 18 19 19 19 18 17 16 15 14 14 13 12 11 11 10 10 10 9 9 9 8 8 8 8 8 8 8
15 15 15 16 19 19 20 21 20 20 20 19 18 17 16 16 15 16 20 19 18 18 17 16 15 14 13 13 12 11 11 10 10 9 9 9 8 8 8 8 8 8 8 8
18 17 17 16 18 18 19 20 20 20 19 21 20 19 17 16 18 20 20 19 18 18 17 16 15 14 13 12 12 11 11 10 10 9 9 9 9 8 8 8 8 8 8 8
18 17 16 15 18 19 20 19 19 20 22 23 22 22 21 21 21 20 20 19 18 17 17 16 15 14 13 12 12 11 11 10 10 10 9 9 9 8 8 8 8 8 8 8
16 16 16 16 18 19 20 21 23 23 23 24 23 22 22 21 21 20 20 19 18 18 17 16 15 14 13 12 12 11 11 10 10 10 9 9 9 9 9 8 8 8 8 8
17 15 15 16 17 19 22 23 23 24 24 24 24 23 22 21 21 20 20 19 18 18 17 16 15 14 14 13 12 11 11 10 10 10 10 9 9 9 9 9 8 8 8 8
18 18 17 17 17 20 23 24 24 24 24 23 23 23 22 22 21 21 20 19 19 18 17 16 15 15 14 13 12 11 11 10 10 10 10 9 9 9 9 9 9 9 8 8
15 16 17 17 20 18 22 23 23 23 23 23 23 22 22 22 21 21 20 20 19 18 17 16 16 15 14 13 12 12 11 11 10 10 10 10 9 9 9 9 9 9 9 8
Wind_Speed
2 3 4 7 8 6 3 2 2 2 2 5 6 6 1 1 3 3 2 2 2 2 1 1 1 2 2 3 4 4 4 4 3 2 2 1 1 0 0 1 1 1 1 1
3 4 7 4 4 4 3 3 3 3 4 4 5 3 1 1 0 1 2 3 3 2 1 2 2 2 2 3 3 3 4 3 3 2 2 1 1 1 1 1 2 2 2 2
5 6 2 2 3 3 1 3 4 5 4 5 4 2 1 2 2 1 2 3 3 5 5 5 4 4 4 5 4 4 4 3 2 2 2 2 2 2 2 2 2 3 4 4
4 3 1 2 3 4 1 1 5 6 5 2 2 0 3 2 3 3 4 4 5 6 5 5 5 5 6 5 4 3 2 2 2 2 2 2 2 2 2 2 2 4 5 5
4 2 1 2 3 5 3 5 6 5 5 4 5 3 4 1 3 4 6 7 6 6 5 6 6 5 3 2 2 2 2 1 1 2 2 2 2 2 2 2 4 4 5 5
4 2 2 1 3 5 7 7 7 6 5 4 3 2 4 4 5 5 5 6 6 5 5 4 3 2 1 1 1 1 2 1 0 1 1 2 3 3 3 4 4 4 4 5
6 5 0 3 5 3 5 6 5 5 5 2 2 1 7 7 6 6 6 6 5 4 4 3 3 2 2 1 1 1 1 1 1 1 2 2 3 4 5 5 5 5 4 4
2 6 3 2 4 6 4 6 6 3 3 3 3 3 7 6 5 5 6 5 4 4 3 3 3 3 2 2 1 1 1 1 2 2 3 3 3 3 4 5 5 5 5 6
4 5 3 1 2 8 6 3 6 7 3 1 4 6 7 3 3 3 4 4 4 3 2 3 3 2 2 2 1 1 1 1 3 3 3 4 4 4 5 6 5 5 6 6
6 3 4 3 5 5 5 8 6 6 4 0 4 4 5 6 6 5 4 5 4 3 3 3 2 1 1 0 0 1 1 3 4 4 4 4 5 5 5 5 7 7 7 7
4 3 5 4 2 2 4 5 6 5 5 6 3 7 7 9 8 7 7 6 6 5 4 2 1 0 0 1 2 2 3 4 5 5 5 5 6 6 6 6 7 7 7 7
4 5 1 4 4 1 2 6 7 5 3 4 4 7 5 7 7 7 7 5 4 4 3 2 1 1 2 3 4 4 5 5 6 5 5 6 6 6 6 7 7 7 7 8
6 5 4 8 7 4 1 3 5 6 6 5 4 7 3 0 2 3 4 3 3 3 3 1 1 3 4 5 5 6 6 6 6 5 5 6 7 7 7 8 8 7 8 8
6 5 6 6 7 4 4 2 5 6 5 6 8 8 5 3 4 4 3 3 3 3 3 3 4 5 6 6 6 6 7 6 6 5 6 7 8 8 8 8 8 8 8 9
5 4 6 7 6 4 5 6 6 7 8 9 8 8 10 9 7 5 4 5 4 5 5 6 6 6 6 7 7 6 7 6 5 6 7 8 8 8 8 8 9 9 9 10
4 5 3 3 3 3 4 5 4 5 5 5 3 7 6 3 4 4 6 7 7 7 8 8 8 7 7 7 7 7 7 6 5 6 8 8 8 8 9 9 9 9 10 10
4 7 4 3 5 3 4 5 5 5 5 7 8 8 4 5 7 8 9 9 9 9 9 9 9 8 8 7 7 7 7 6 6 7 8 8 8 9 10 10 9 10 10 9
8 6 5 2 2 4 8 4 5 4 4 6 6 5 8 8 6 5 8 9 10 10 9 9 8 7 6 6 6 6 6 6 7 8 8 8 9 10 10 10 10 10 9 9
5 8 5 4 3 6 8 4 7 6 5 6 7 7 5 4 3 4 8 9 11 10 9 8 7 6 5 7 6 5 6 6 7 8 9 9 9 10 10 11 10 9 9 10
5 5 6 5 5 6 9 4 6 5 5 7 9 10 8 8 2 7 8 10 11 10 7 7 5 4 6 7 4 5 7 7 8 9 9 9 9 9 11 11 10 9 9 10
2 3 4 5 5 8 8 4 8 4 9 8 12 11 11 11 10 6 5 8 9 8 8 6 6 6 7 6 4 6 7 8 9 8 8 9 9 9 10 10 8 9 9 9
5 4 4 5 3 8 4 9 10 11 5 7 11 11 13 13 9 7 7 8 8 8 7 7 6 7 7 5 5 7 8 8 7 7 8 9 9 9 8 9 9 9 8 9
6 8 6 8 8 7 6 9 8 5 6 8 11 11 13 12 10 10 9 9 9 9 8 6 6 7 7 6 6 8 8 7 6 7 9 9 10 9 8 8 9 9 7 7
4 4 4 4 9 8 8 7 6 8 9 9 10 10 12 12 12 11 9 8 8 8 8 6 6 7 7 6 6 8 8 6 6 8 9 9 9 10 9 7 7 7 7 7
6 4 2 5 9 9 8 7 7 6 6 6 7 9 13 13 11 11 9 9 9 8 7 6 7 8 9 7 7 7 6 5 6 8 8 9 8 9 9 9 7 8 8 8
3 5 5 7 8 6 8 7 3 5 7 8 8 8 8 11 12 10 10 9 9 8 6 6 7 8 8 7 7 7 6 5 6 7 8 7 7 8 8 8 9 9 10 11
Wind_Direction
105 93 224 226 205 203 196 170 121 52 44 75 95 107 100 44 85 102 107 114 132 152 163 169 182 169 143 155 158 162 155 157 143 130 136 143 195 255 294 274 280 288 288 271
45 258 240 212 182 160 153 131 117 82 57 88 98 82 50 360 323 197 190 198 192 191 214 222 213 213 213 211 193 179 175 175 178 167 156 160 155 190 254 318 333 336 332 307
216 247 234 149 149 136 147 169 166 145 92 65 96 41 1 338 343 282 235 227 221 219 214 219 225 224 224 223 214 199 197 193 184 153 107 83 61 29 359 337 323 322 321 309
242 262 213 192 211 165 232 216 139 128 114 52 44 174 292 303 308 256 246 245 246 248 235 228 231 233 228 227 215 206 200 201 184 155 155 161 174 224 247 262 288 307 313 308
277 253 204 222 230 156 134 79 89 91 102 68 27 60 298 314 272 251 247 249 250 252 238 233 230 231 241 232 207 196 182 209 211 181 179 177 206 236 269 288 298 304 306 303
269 273 193 173 55 108 122 78 61 53 66 45 352 41 292 249 231 241 237 243 247 241 231 230 227 219 233 199 165 162 168 244 291 219 205 207 237 261 282 288 291 293 295 297
342 337 334 122 97 62 83 86 39 12 19 290 295 285 256 255 235 226 236 245 249 235 224 218 207 205 199 169 147 110 122 319 333 308 277 261 258 258 259 268 273 280 286 283
1 312 283 182 168 161 151 131 149 187 210 283 326 266 259 258 247 233 237 243 249 234 221 207 197 187 182 162 129 113 110 303 314 302 291 284 269 256 258 261 260 263 263 268
184 267 301 59 130 130 131 122 140 121 117 43 299 294 304 270 252 224 220 218 225 220 202 180 165 157 161 144 141 160 184 272 289 289 289 285 280 269 269 273 267 265 264 270
165 239 309 333 78 54 121 136 101 107 128 297 308 288 251 253 240 227 212 211 210 186 172 154 136 137 149 180 296 308 260 267 279 285 280 281 280 275 272 276 276 273 273 273
128 158 319 13 52 161 115 96 100 102 139 148 233 268 226 224 224 218 218 210 200 196 187 174 166 181 295 311 293 284 283 280 281 281 281 285 284 283 281 276 275 277 279 279
120 116 326 296 293 274 162 154 148 145 185 164 177 263 268 237 231 216 216 208 186 175 164 162 185 280 293 286 285 284 285 282 278 281 285 284 284 286 284 280 280 280 280 279
133 101 43 351 344 353 46 125 133 123 116 148 173 262 308 35 176 202 200 184 156 151 153 175 258 272 276 280 284 288 287 282 282 286 287 288 288 287 282 280 282 283 282 283
116 109 154 198 231 258 288 193 153 135 148 190 218 246 277 230 209 212 188 167 163 184 200 228 255 265 273 277 281 285 287 282 283 286 287 286 286 284 282 281 282 282 281 281
112 160 209 234 248 244 247 246 192 189 188 186 225 224 240 222 214 213 190 174 183 212 232 241 250 262 271 278 280 279 280 284 287 290 289 285 286 286 285 285 284 284 282 282
115 163 177 284 287 277 260 253 199 192 186 201 219 248 248 202 153 173 184 188 208 230 241 249 256 261 266 268 272 276 277 281 287 285 285 287 290 292 289 287 287 287 287 285
145 141 140 259 310 8 278 242 206 203 195 173 200 231 184 172 194 205 203 204 217 231 241 247 251 254 259 261 260 264 269 282 287 284 287 290 291 293 291 292 293 290 289 288
144 132 139 162 60 242 251 270 196 181 212 204 213 214 192 200 209 220 202 203 222 234 241 247 249 254 260 260 262 265 274 280 283 286 288 290 292 294 294 294 291 289 288 289
145 136 128 136 181 275 291 232 164 160 240 212 196 200 180 109 56 300 225 210 219 227 231 236 239 243 257 265 265 273 281 283 286 286 288 290 292 295 297 296 293 291 290 292
79 105 121 139 163 229 250 230 155 108 277 224 190 191 164 127 161 257 234 210 224 233 234 236 242 244 256 262 262 266 276 283 282 283 286 289 290 292 293 291 290 289 288 288
62 78 137 165 204 253 251 164 130 162 243 211 190 188 169 182 205 225 220 206 215 223 228 229 233 242 250 258 252 259 271 273 274 281 287 292 291 290 288 286 286 290 291 291
190 168 181 149 184 258 215 146 179 213 221 184 189 188 187 209 225 235 228 220 217 219 227 224 225 245 255 250 238 257 266 269 279 285 291 293 293 293 294 292 293 292 291 293
199 193 189 189 215 243 213 208 226 190 197 198 193 196 194 206 222 224 225 223 220 219 224 221 221 245 261 252 231 251 264 276 286 291 293 296 299 297 292 291 295 300 296 292
269 159 163 253 271 264 253 247 238 209 211 209 197 191 185 199 213 215 219 218 218 223 224 219 217 238 257 257 245 245 265 276 280 287 294 298 303 305 304 298 291 292 294 294
245 188 205 265 280 301 293 253 238 228 227 216 204 196 196 201 211 209 211 213 215 220 221 211 216 234 249 259 262 262 264 266 276 286 293 300 301 301 306 305 294 287 280 270
226 192 196 239 250 233 263 275 258 221 223 213 203 212 211 204 211 205 208 209 208 215 214 217 226 237 250 257 264 269 264 254 268 287 297 300 304 305 305 308 310 292 277 281
Height
1497 1502 1506 1502 1499 1499 1502 1506 1510 1508 1504 1507 1512 1514 1514 1513 1512 1512 1513 1513 1514 1516 1517 1518 1519 1519 1519 1521 1521 1522 1522 1522 1523 1524 1524 1524 1524 1523 1523 1523 1522 1522 1521 1520
1502 1503 1494 1492 1494 1498 1501 1507 1510 1509 1506 1510 1516 1517 1516 1515 1515 1514 1514 1514 1515 1515 1517 1519 1519 1519 1520 1521 1522 1522 1522 1522 1523 1523 1523 1523 1522 1521 1521 1520 1520 1519 1518 1517
1500 1496 1490 1492 1496 1500 1502 1506 1508 1511 1511 1513 1517 1522 1520 1517 1516 1516 1515 1515 1515 1516 1516 1518 1518 1519 1520 1520 1521 1522 1522 1522 1522 1521 1521 1521 1520 1519 1519 1518 1517 1516 1515 1514
1496 1491 1491 1494 1497 1498 1506 1500 1502 1507 1516 1526 1523 1533 1524 1520 1518 1516 1515 1515 1515 1515 1516 1517 1518 1518 1519 1520 1520 1520 1520 1520 1520 1520 1519 1518 1518 1517 1516 1515 1514 1513 1512 1510
1495 1491 1492 1495 1494 1495 1502 1500 1504 1510 1518 1526 1528 1532 1529 1521 1520 1516 1514 1514 1514 1515 1516 1516 1517 1517 1518 1518 1519 1519 1519 1519 1518 1517 1517 1516 1515 1514 1513 1511 1510 1509 1507 1506
1492 1489 1490 1491 1492 1494 1499 1505 1511 1518 1525 1537 1534 1536 1531 1523 1517 1514 1512 1512 1512 1513 1514 1515 1515 1516 1517 1517 1517 1517 1517 1516 1516 1515 1514 1513 1512 1510 1509 1507 1506 1504 1503 1501
1498 1492 1489 1490 1496 1499 1501 1515 1532 1535 1543 1542 1533 1535 1530 1513 1510 1510 1509 1509 1510 1511 1513 1513 1514 1514 1515 1515 1515 1515 1514 1514 1513 1512 1511 1509 1508 1506 1504 1503 1501 1499 1498 1496
1507 1508 1492 1489 1493 1500 1504 1511 1532 1539 1544 1542 1534 1534 1521 1508 1506 1507 1507 1508 1509 1510 1511 1511 1512 1513 1513 1513 1513 1513 1512 1511 1510 1509 1507 1506 1504 1502 1500 1499 1497 1495 1493 1491
1507 1506 1489 1487 1488 1493 1505 1512 1515 1532 1538 1542 1536 1527 1514 1505 1505 1505 1505 1506 1507 1508 1509 1510 1511 1512 1512 1512 1511 1511 1510 1508 1507 1505 1504 1502 1500 1498 1496 1494 1492 1490 1488 1486
1497 1503 1493 1489 1489 1493 1498 1509 1522 1532 1542 1544 1534 1529 1524 1508 1505 1503 1504 1505 1506 1507 1508 1509 1510 1510 1510 1510 1509 1508 1507 1505 1503 1502 1500 1498 1496 1494 1492 1490 1488 1485 1483 1481
1494 1505 1501 1495 1496 1498 1502 1511 1521 1532 1532 1543 1544 1534 1506 1503 1500 1501 1501 1502 1504 1506 1507 1508 1509 1509 1509 1508 1507 1505 1504 1502 1500 1498 1496 1494 1492 1490 1488 1485 1483 1480 1478 1475
1496 1506 1511 1502 1494 1492 1495 1502 1515 1525 1532 1536 1539 1530 1498 1497 1497 1498 1500 1501 1503 1505 1506 1507 1508 1508 1507 1506 1504 1503 1501 1499 1497 1495 1493 1491 1488 1486 1483 1480 1478 1475 1472 1470
1495 1507 1520 1517 1510 1499 1497 1500 1508 1517 1529 1537 1538 1523 1497 1496 1496 1497 1499 1500 1502 1504 1505 1506 1506 1506 1505 1503 1502 1500 1498 1496 1494 1492 1489 1487 1484 1481 1478 1475 1472 1469 1467 1464
1489 1504 1514 1519 1513 1502 1500 1498 1505 1512 1524 1529 1524 1512 1499 1496 1496 1497 1498 1500 1501 1503 1504 1504 1504 1504 1502 1501 1499 1497 1495 1493 1491 1488 1485 1482 1479 1476 1473 1469 1466 1463 1461 1458
1488 1500 1501 1501 1497 1497 1497 1495 1498 1504 1507 1514 1508 1507 1497 1494 1494 1495 1497 1499 1500 1502 1502 1503 1502 1501 1500 1498 1496 1494 1492 1490 1487 1484 1481 1478 1475 1471 1467 1464 1461 1458 1455 1452
1489 1496 1498 1499 1494 1495 1495 1491 1492 1495 1498 1501 1500 1500 1491 1491 1493 1495 1496 1497 1499 1500 1500 1500 1500 1498 1496 1495 1493 1491 1489 1486 1483 1480 1477 1473 1470 1466 1462 1459 1455 1452 1449 1446
1492 1496 1504 1507 1499 1495 1501 1490 1489 1490 1491 1495 1499 1494 1489 1491 1492 1492 1494 1495 1496 1497 1498 1497 1496 1495 1493 1492 1490 1487 1485 1482 1480 1476 1473 1469 1465 1461 1457 1454 1450 1447 1444 1440
1491 1498 1506 1509 1504 1511 1498 1484 1484 1487 1487 1487 1487 1487 1487 1488 1489 1490 1492 1493 1494 1495 1495 1494 1493 1492 1490 1488 1486 1484 1482 1479 1476 1472 1468 1464 1460 1456 1452 1449 1445 1442 1439 1435
1485 1495 1507 1513 1511 1505 1491 1482 1483 1486 1487 1483 1484 1484 1486 1488 1489 1489 1489 1490 1491 1491 1491 1491 1490 1489 1487 1485 1483 1481 1478 1475 1472 1468 1464 1460 1456 1451 1447 1444 1441 1437 1434 1431
1487 1490 1503 1510 1509 1510 1490 1476 1477 1483 1490 1479 1480 1482 1484 1487 1494 1489 1485 1486 1487 1488 1488 1487 1486 1485 1483 1482 1480 1477 1474 1471 1468 1464 1460 1456 1451 1447 1443 1440 1437 1433 1430 1426
1492 1496 1501 1506 1506 1498 1477 1474 1478 1494 1488 1472 1474 1476 1480 1482 1483 1482 1482 1483 1483 1484 1484 1484 1483 1481 1480 1478 1476 1473 1470 1467 1464 1460 1456 1452 1447 1443 1440 1436 1433 1429 1426 1422
1491 1496 1500 1506 1505 1497 1471 1474 1478 1474 1466 1467 1469 1472 1474 1475 1477 1479 1479 1479 1480 1480 1480 1480 1479 1478 1476 1474 1472 1469 1466 1463 1460 1456 1452 1448 1444 1440 1436 1432 1429 1426 1422 1418
1486 1486 1488 1489 1485 1470 1467 1466 1464 1465 1464 1464 1466 1468 1470 1472 1473 1474 1475 1476 1476 1476 1476 1476 1475 1474 1473 1471 1468 1465 1462 1459 1456 1452 1448 1444 1440 1436 1433 1429 1425 1421 1418 1414
1478 1477 1480 1480 1471 1465 1463 1463 1462 1461 1461 1462 1463 1465 1466 1468 1469 1470 1471 1472 1472 1472 1472 1472 1471 1470 1469 1467 1464 1461 1459 1455 1452 1448 1444 1440 1436 1432 1429 1426 1422 1418 1414 1410
1475 1474 1477 1476 1468 1463 1460 1459 1458 1458 1459 1459 1460 1461 1462 1463 1465 1466 1467 1468 1468 1469 1469 1469 1468 1466 1465 1463 1460 1458 1455 1452 1448 1444 1441 1437 1433 1429 1425 1422 1419 1414 1411 1407
1472 1473 1475 1473 1463 1463 1459 1457 1456 1456 1455 1456 1456 1457 1458 1459 1460 1462 1463 1464 1465 1465 1466 1465 1464 1463 1461 1459 1457 1454 1451 1448 1444 1441 1437 1433 1430 1426 1422 1419 1415 1412 1408 1404